Orbital Elements at Epoch 2459200.5 (2020-Dec-17.0) TDB
Reference: JPL 22 (heliocentric ecliptic J2000)
Element | Value | Uncertainty (1-sigma) | Units |
e | .09628193926435144 | 5.5786e-08 | |
a | 2.72097530679003 | 2.0577e-08 | au |
q | 2.458994527561872 | 1.5903e-07 | au |
i | 4.981019034590159 | 5.056e-06 | deg |
node | 8.446735370611087 | 5.1266e-05 | deg |
peri | 156.4646046730645 | 5.5893e-05 | deg |
M | 3.899464539467521 | 2.2876e-05 | deg |
tp | 2459182.742255532535 (2020-Nov-29.24225553) | 0.0001041 | TDB |
period | 1639.40149822734 4.49 | 1.8596e-05 5.091e-08 | d yr |
n | .2195923331711374 | 2.4909e-09 | deg/d |
Q | 2.982956086018187 | 2.2558e-08 | au |
|
| | Orbit Determination Parameters
Additional Information
|